EW6304 Weather Reports


time (UTC)temp
C
wind
direction
speed
KPH
gust
KPH
rain 1hr
cm
rain 24hr
cm
rain mn
cm
humidity
%
barometer
mb
20260505124903 17 126 3.2 8.0 0.00 0.00 0.00 72 1009.8
20260505124404 17 42 3.2 11.3 0.00 0.00 0.00 73 1009.9
20260505123902 17 295 3.2 11.3 0.00 0.00 0.00 73 1010.0
20260505123402 17 170 3.2 8.0 0.00 0.00 0.00 74 1009.9
20260505122904 17 170 3.2 17.7 0.00 0.00 0.00 74 1009.8
20260505122403 16 63 3.2 17.7 0.00 0.00 0.00 75 1009.7
20260505121901 16 115 1.6 11.3 0.00 0.00 0.00 76 1009.6
20260505121401 16 173 3.2 11.3 0.00 0.00 0.00 77 1009.6
20260505120902 15 225 3.2 9.7 0.00 0.00 0.00 79 1009.7
20260505120400 15 355 3.2 12.9 0.00 0.00 0.00 80 1009.7
20260505115859 15 0 1.6 12.9 0.00 0.00 0.00 82 1009.9
20260505115400 14 0 1.6 6.4 0.00 0.00 0.00 83 1009.7
20260505114858 14 0 1.6 8.0 0.00 0.00 0.00 83 1009.7
20260505114359 13 0 1.6 8.0 0.00 0.00 0.00 85 1009.7
20260505113858 13 0 1.6 4.8 0.00 0.00 0.00 87 1009.7
20260505113356 13 0 1.6 6.4 0.00 0.00 0.00 88 1009.8
20260505112857 13 0 1.6 6.4 0.00 0.00 0.00 90 1009.8
20260505112355 12 0 1.6 4.8 0.00 0.00 0.00 91 1009.9
20260505111856 12 0 1.6 4.8 0.00 0.00 0.00 92 1009.8
20260505111355 12 0 1.6 4.8 0.00 0.00 0.00 93 1009.7
20260505110902 11 0 1.6 6.4 0.00 0.00 0.00 94 1009.7
20260505110855 11 0 1.6 6.4 0.00 0.00 0.00 93 1009.6
20260505101856 8 53 0.0 1.6 0.00 0.00 0.00 94 1009.6
20260505101356 8 53 0.0 1.6 0.00 0.00 0.00 94 1009.6
20260505100901 8 53 0.0 1.6 0.00 0.00 0.00 93 1009.6
20260505100856 8 53 0.0 1.6 0.00 0.00 0.00 93 1009.7
20260505100511 8 53 0.0 1.6 0.00 0.00 0.00 94 1009.6
20260505095400 8 54 0.0 1.6 0.00 0.00 0.00 93 1009.6
20260505095355 8 54 0.0 1.6 0.00 0.00 0.00 93 1009.6
20260505094353 8 54 0.0 1.6 0.00 0.00 0.00 93 1009.7
20260505093857 8 54 0.0 0.0 0.00 0.00 0.00 93 1009.8
20260505093852 8 54 0.0 0.0 0.00 0.00 0.00 93 1009.7
20260505093511 8 54 0.0 0.0 0.00 0.00 0.00 93 1009.7
20260505092352 8 54 0.0 0.0 0.00 0.00 0.00 92 1009.9
20260505091853 8 54 0.0 1.6 0.00 0.00 0.00 92 1009.9
20260505091354 8 54 0.0 1.6 0.00 0.00 0.00 93 1009.9
20260505090852 8 54 0.0 1.6 0.00 0.00 0.00 93 1009.9
20260505090352 8 54 0.0 1.6 0.00 0.00 0.00 92 1009.9
20260505085853 8 54 0.0 0.0 0.00 0.00 0.00 92 1009.8
20260505085352 8 54 0.0 0.0 0.00 0.00 0.00 92 1009.9
20260505084856 8 54 0.0 1.6 0.00 0.00 0.00 92 1009.9
20260505084851 8 54 0.0 1.6 0.00 0.00 0.00 92 1010.0
20260505083850 8 54 0.0 1.6 0.00 0.00 0.00 92 1009.9
20260505083350 8 54 0.0 1.6 0.00 0.00 0.00 92 1009.9
20260505082849 8 54 0.0 1.6 0.00 0.00 0.00 92 1009.8
20260505082351 8 54 0.0 1.6 0.00 0.00 0.00 92 1009.9
20260505081855 8 54 0.0 1.6 0.00 0.00 0.00 92 1009.7
20260505081850 8 54 0.0 1.6 0.00 0.00 0.00 92 1009.7
20260505080849 8 54 0.0 1.6 0.00 0.00 0.00 92 1009.8
20260505080346 8 54 0.0 1.6 0.00 0.00 0.00 92 1009.8
20260505075846 8 54 0.0 1.6 0.00 0.00 0.00 91 1009.9
20260505075346 8 54 0.0 1.6 0.00 0.00 0.00 91 1009.9
20260505074845 8 54 0.0 1.6 0.00 0.00 0.00 91 1010.0
20260505074347 8 54 0.0 1.6 0.00 0.00 0.00 91 1010.1
20260505073844 8 54 0.0 1.6 0.00 0.00 0.00 91 1010.0
20260505073345 8 54 0.0 3.2 0.00 0.00 0.00 91 1009.9
20260505072847 8 54 0.0 3.2 0.00 0.00 0.00 91 1009.9
20260505072344 9 54 0.0 1.6 0.00 0.00 0.00 91 1010.0
20260505071845 9 54 0.0 1.6 0.00 0.00 0.00 91 1009.9
20260505071346 9 54 0.0 1.6 0.00 0.00 0.00 91 1009.9
20260505070850 9 54 0.0 3.2 0.00 0.00 0.00 90 1009.9
20260505070843 9 54 0.0 1.6 0.00 0.00 0.00 90 1010.0
20260505070502 9 54 0.0 3.2 0.00 0.00 0.00 90 1009.9
20260505070001 9 54 0.0 1.6 0.00 0.00 0.00 90 1009.9
20260505064843 9 54 0.0 4.8 0.00 0.00 0.00 90 1010.0
20260505064344 9 53 1.6 4.8 0.00 0.00 0.00 90 1010.1
20260505063843 9 92 1.6 3.2 0.00 0.00 0.00 89 1010.0
20260505063344 9 92 0.0 3.2 0.00 0.00 0.00 89 1010.0
20260505062844 9 92 0.0 3.2 0.00 0.00 0.00 89 1010.1
20260505062348 9 92 0.0 4.8 0.00 0.00 0.00 89 1010.1
20260505062343 9 92 0.0 4.8 0.00 0.00 0.00 89 1010.0
20260505061342 9 339 0.0 4.8 0.00 0.00 0.00 88 1010.0
20260505060841 10 90 0.0 1.6 0.00 0.00 0.00 88 1010.1
20260505060341 10 90 0.0 3.2 0.00 0.00 0.00 88 1010.1
20260505055841 10 90 1.6 4.8 0.00 0.00 0.00 88 1010.1
20260505055339 10 90 0.0 4.8 0.00 0.00 0.00 88 1010.1
20260505054840 10 90 0.0 1.6 0.00 0.00 0.00 88 1010.1
20260505054341 10 90 0.0 3.2 0.00 0.00 0.00 88 1010.0
20260505053839 10 90 1.6 3.2 0.00 0.00 0.00 87 1010.1
20260505053340 10 90 0.0 3.2 0.00 0.00 0.00 87 1010.1
20260505052847 10 36 1.6 4.8 0.00 0.00 0.00 87 1010.1
20260505052838 10 91 1.6 4.8 0.00 0.00 0.00 87 1010.0
20260505052339 10 91 1.6 4.8 0.00 0.00 0.00 87 1010.0
20260505051338 10 40 1.6 4.8 0.00 0.00 0.00 86 1010.1
20260505050836 10 40 1.6 4.8 0.00 0.00 0.00 87 1010.1
20260505050338 10 39 1.6 4.8 0.00 0.00 0.00 86 1010.2
20260505041335 10 44 0.0 3.2 0.00 0.00 0.00 84 1010.3
20260505040836 10 0 0.0 1.6 0.00 0.00 0.00 83 1010.3
20260505040334 10 0 0.0 4.8 0.00 0.00 0.00 83 1010.3
20260505035836 10 44 0.0 4.8 0.00 0.00 0.00 82 1010.3
20260505035336 11 46 1.6 4.8 0.00 0.00 0.00 82 1010.3
20260505034834 11 46 1.6 4.8 0.00 0.00 0.00 82 1010.2
20260505034335 11 76 1.6 4.8 0.00 0.00 0.00 81 1010.2
20260505033836 11 76 0.0 4.8 0.00 0.00 0.00 81 1010.2
20260505033336 11 83 1.6 4.8 0.00 0.00 0.00 81 1010.2
20260505032835 11 83 1.6 4.8 0.00 0.00 0.00 81 1010.2
20260505032334 11 83 1.6 4.8 0.00 0.00 0.00 80 1010.1
20260505031836 11 344 1.6 4.8 0.00 0.00 0.00 80 1010.1
20260505031336 11 344 1.6 4.8 0.00 0.00 0.00 80 1010.2
20260505030841 11 343 1.6 4.8 0.00 0.00 0.00 79 1010.4
20260505030835 11 343 1.6 3.2 0.00 0.00 0.00 79 1010.3
20260505025835 11 340 1.6 4.8 0.00 0.00 0.00 79 1010.4
20260505025336 11 45 1.6 4.8 0.00 0.00 0.00 78 1010.4
20260505024834 11 87 1.6 4.8 0.00 0.00 0.00 78 1010.4
20260505024335 11 85 1.6 6.4 0.00 0.00 0.00 77 1010.3
20260505023834 11 85 1.6 6.4 0.00 0.00 0.00 77 1010.3
20260505023335 12 85 1.6 4.8 0.00 0.00 0.00 76 1010.3
20260505022834 12 85 1.6 6.4 0.00 0.00 0.00 76 1010.3
20260505022334 12 15 1.6 6.4 0.00 0.00 0.00 75 1010.3
20260505021835 12 0 1.6 3.2 0.00 0.00 0.00 75 1010.4
20260505021344 12 0 1.6 4.8 0.00 0.00 0.00 74 1010.4
20260505021334 12 0 1.6 4.8 0.00 0.00 0.00 75 1010.4
20260505020334 12 0 1.6 4.8 0.00 0.00 0.00 74 1010.3
20260505015840 12 0 1.6 8.0 0.00 0.00 0.00 73 1010.3
20260505015834 12 0 1.6 6.4 0.00 0.00 0.00 74 1010.3
20260505015459 12 0 1.6 12.9 0.00 0.00 0.00 73 1010.4
20260505014335 12 0 1.6 12.9 0.00 0.00 0.00 72 1010.3
20260505013840 13 0 1.6 12.9 0.00 0.00 0.00 72 1010.1
20260505013834 12 0 1.6 8.0 0.00 0.00 0.00 72 1010.1
20260505012836 13 0 1.6 12.9 0.00 0.00 0.00 71 1010.1
20260505012335 13 0 1.6 8.0 0.00 0.00 0.00 71 1010.0
20260505011834 13 0 1.6 12.9 0.00 0.00 0.00 70 1009.8
20260505011336 13 0 1.6 12.9 0.00 0.00 0.00 70 1009.8
20260505010834 13 0 1.6 8.0 0.00 0.00 0.00 69 1009.7
20260505010340 13 0 1.6 6.4 0.00 0.00 0.00 68 1009.6
20260505010335 13 0 1.6 6.4 0.00 0.00 0.00 68 1009.7
20260505005451 13 0 1.6 8.0 0.00 0.00 0.00 66 1009.3
20260505005337 13 0 3.2 8.0 0.00 0.00 0.00 68 1009.5
20260505005332 13 0 1.6 8.0 0.00 0.00 0.00 67 1009.4
20260505003837 13 0 1.6 6.4 0.00 0.00 0.00 65 1009.1
20260505003832 13 0 1.6 8.0 0.00 0.00 0.00 66 1009.2
20260505002833 13 0 1.6 8.0 0.00 0.00 0.00 64 1008.9
20260505002340 14 0 3.2 8.0 0.00 0.00 0.00 62 1008.7
20260505002335 13 0 3.2 8.0 0.00 0.00 0.00 62 1008.8
20260505001333 14 0 1.6 4.8 0.00 0.00 0.00 62 1008.7
20260505000831 14 0 1.6 8.0 0.00 0.00 0.00 61 1008.6
20260505000338 14 0 3.2 9.7 0.00 0.00 0.00 60 1008.5
20260505000332 14 0 1.6 8.0 0.00 0.00 0.00 61 1008.5
20260504235335 15 0 3.2 8.0 0.00 0.00 0.00 59 1008.3
20260504235331 15 0 3.2 9.7 0.00 0.00 0.00 60 1008.4
20260504234330 15 0 3.2 8.0 0.00 0.00 0.00 58 1008.2
20260504233830 15 0 3.2 8.0 0.00 0.00 0.00 57 1008.2
20260504233331 15 0 1.6 8.0 0.00 0.00 0.00 57 1008.2
20260504232831 16 0 3.2 12.9 0.00 0.00 0.00 56 1008.1
20260504232331 16 0 3.2 14.5 0.00 0.00 0.00 55 1008.0
20260504231831 16 0 3.2 16.1 0.00 0.00 0.00 54 1007.7
20260504231331 16 0 3.2 16.1 0.00 0.00 0.00 53 1007.7
20260504230832 16 326 3.2 14.5 0.00 0.00 0.00 52 1007.6
20260504230331 17 263 3.2 14.5 0.00 0.00 0.00 52 1007.6
20260504225835 17 198 3.2 8.0 0.00 0.00 0.00 51 1007.4
20260504225831 17 129 3.2 6.4 0.00 0.00 0.00 51 1007.6
20260504225450 17 244 3.2 12.9 0.00 0.00 0.00 50 1007.3
20260504224949 17 92 4.8 12.9 0.00 0.00 0.00 50 1007.3
20260504223831 17 157 3.2 12.9 0.00 0.00 0.00 49 1007.1
20260504223330 18 0 3.2 12.9 0.00 0.00 0.00 49 1007.1
20260504222835 18 0 3.2 11.3 0.00 0.00 0.00 49 1007.0
20260504222830 18 0 3.2 14.5 0.00 0.00 0.00 51 1007.2
20260504222330 18 0 3.2 14.5 0.00 0.00 0.00 49 1007.1
20260504221336 18 75 4.8 17.7 0.00 0.00 0.00 49 1007.0
20260504221331 18 95 3.2 11.3 0.00 0.00 0.00 49 1007.0
20260504220331 18 47 4.8 17.7 0.00 0.00 0.00 48 1006.9
20260504215833 19 163 3.2 8.0 0.00 0.00 0.00 47 1006.8
20260504215329 19 121 3.2 14.5 0.00 0.00 0.00 48 1006.9
20260504214832 19 155 4.8 16.1 0.00 0.00 0.00 47 1007.0
20260504214335 20 84 4.8 14.5 0.00 0.00 0.00 45 1006.9
20260504214330 20 102 4.8 16.1 0.00 0.00 0.00 46 1006.9
20260504213330 20 31 3.2 8.0 0.00 0.00 0.00 44 1006.9
20260504212829 20 88 3.2 16.1 0.00 0.00 0.00 44 1006.8
20260504212329 20 71 3.2 16.1 0.00 0.00 0.00 43 1006.8
20260504211830 20 155 3.2 16.1 0.00 0.00 0.00 42 1006.7
20260504211329 20 53 3.2 12.9 0.00 0.00 0.00 42 1006.8
20260504210838 20 68 4.8 16.1 0.00 0.00 0.00 41 1006.7
20260504210831 20 82 3.2 16.1 0.00 0.00 0.00 43 1006.7
20260504205832 21 134 4.8 17.7 0.00 0.00 0.00 41 1006.6
20260504205330 21 197 4.8 17.7 0.00 0.00 0.00 40 1006.6
20260504204835 21 65 3.2 9.7 0.00 0.00 0.00 41 1006.5
20260504204830 21 36 3.2 9.7 0.00 0.00 0.00 40 1006.6
20260504203829 21 67 4.8 11.3 0.00 0.00 0.00 41 1006.5
20260504203331 21 68 4.8 19.3 0.00 0.00 0.00 41 1006.6
20260504202829 21 75 4.8 19.3 0.00 0.00 0.00 40 1006.5
20260504202330 21 51 4.8 16.1 0.00 0.00 0.00 41 1006.5
20260504201831 21 142 4.8 11.3 0.00 0.00 0.00 39 1006.5
20260504201331 21 127 4.8 14.5 0.00 0.00 0.00 37 1006.5
20260504200831 21 72 3.2 14.5 0.00 0.00 0.00 37 1006.5
20260504200331 22 296 3.2 14.5 0.00 0.00 0.00 35 1006.6
20260504195831 22 59 3.2 19.3 0.00 0.00 0.00 36 1006.5
20260504195329 22 263 4.8 19.3 0.00 0.00 0.00 34 1006.5
20260504194829 22 151 3.2 14.5 0.00 0.00 0.00 34 1006.6
20260504194329 22 44 3.2 11.3 0.00 0.00 0.00 36 1006.6
20260504193824 22 144 4.8 20.9 0.00 0.00 0.00 33 1006.7
20260504193326 22 355 6.4 20.9 0.00 0.00 0.00 32 1006.6
20260504193321 22 313 4.8 20.9 0.00 0.00 0.00 33 1006.6
20260504192941 22 252 4.8 20.9 0.00 0.00 0.00 32 1006.6
20260504191823 22 319 4.8 16.1 0.00 0.00 0.00 30 1006.6
20260504191323 22 342 6.4 19.3 0.00 0.00 0.00 31 1006.7
20260504190827 22 247 6.4 19.3 0.00 0.00 0.00 32 1006.7
20260504190822 22 312 6.4 19.3 0.00 0.00 0.00 31 1006.6
20260504185822 22 85 6.4 25.7 0.00 0.00 0.00 30 1006.8
20260504185323 22 51 4.8 25.7 0.00 0.00 0.00 32 1006.8
20260504184821 22 296 4.8 12.9 0.00 0.00 0.00 34 1006.8
20260504184322 22 80 4.8 17.7 0.00 0.00 0.00 31 1006.6
20260504183825 22 191 4.8 11.3 0.00 0.00 0.00 33 1007.0
20260504183820 22 270 4.8 17.7 0.00 0.00 0.00 29 1006.8
20260504182820 22 61 6.4 16.1 0.00 0.00 0.00 31 1007.0
20260504182319 22 317 6.4 20.9 0.00 0.00 0.00 32 1006.9
20260504181821 22 302 6.4 20.9 0.00 0.00 0.00 31 1007.1
20260504181319 22 284 6.4 19.3 0.00 0.00 0.00 33 1007.0
20260504180828 21 318 6.4 29.0 0.00 0.00 0.00 32 1007.2
20260504180821 22 258 4.8 19.3 0.00 0.00 0.00 31 1007.4
20260504175819 21 244 6.4 29.0 0.00 0.00 0.00 31 1007.3
20260504175320 21 120 6.4 17.7 0.00 0.00 0.00 30 1007.2
20260504174827 21 250 4.8 20.9 0.00 0.00 0.00 32 1007.1
20260504174821 21 336 6.4 20.9 0.00 0.00 0.00 31 1007.1
20260504173816 22 333 4.8 19.3 0.00 0.00 0.00 30 1006.9
20260504173323 22 72 4.8 19.3 0.00 0.00 0.00 33 1007.1
20260504173318 22 90 4.8 19.3 0.00 0.00 0.00 30 1007.0
20260504172317 22 267 4.8 17.7 0.00 0.00 0.00 32 1007.3
20260504171817 21 35 4.8 16.1 0.00 0.00 0.00 32 1007.0
20260504171319 22 192 6.4 22.5 0.00 0.00 0.00 34 1007.2
20260504170817 21 234 6.4 22.5 0.00 0.00 0.00 31 1007.1
20260504170318 21 278 6.4 25.7 0.00 0.00 0.00 34 1007.1
20260504160316 21 275 4.8 16.1 0.00 0.00 0.00 35 1008.0
20260504150814 20 9 4.8 19.3 0.00 0.00 0.00 37 1008.6
20260504150311 20 44 4.8 19.3 0.00 0.00 0.00 35 1008.5